TimeEDT,TemperatureF,Dew PointF,Humidity,Sea Level PressureIn,VisibilityMPH,Wind Direction,Wind SpeedMPH,Gust SpeedMPH,PrecipitationIn,Events,Conditions,WindDirDegrees,DateUTC
12:51 AM,62.1,59.0,90,30.04,-9999.0,NE,8.1,-,N/A,,Unknown,50,2013-10-05 04:51:00
1:51 AM,62.1,59.0,90,30.04,-9999.0,NE,9.2,-,N/A,,Unknown,40,2013-10-05 05:51:00
2:51 AM,62.1,59.0,90,30.04,-9999.0,NE,10.4,-,N/A,,Unknown,40,2013-10-05 06:51:00
3:51 AM,62.1,59.0,90,30.04,-9999.0,NE,11.5,-,N/A,,Unknown,50,2013-10-05 07:51:00
4:51 AM,62.1,59.0,90,30.04,-9999.0,NE,9.2,-,N/A,,Unknown,40,2013-10-05 08:51:00
5:51 AM,62.1,59.0,90,30.04,-9999.0,NE,10.4,-,N/A,,Unknown,50,2013-10-05 09:51:00
6:51 AM,62.1,59.0,90,30.04,-9999.0,NE,10.4,-,N/A,,Unknown,50,2013-10-05 10:51:00
7:51 AM,62.1,60.1,93,30.04,-9999.0,ENE,10.4,-,N/A,,Unknown,70,2013-10-05 11:51:00
8:51 AM,62.1,60.1,93,30.04,-9999.0,East,10.4,-,0.01,,Unknown,100,2013-10-05 12:51:00
9:51 AM,63.0,61.0,93,30.04,-9999.0,East,4.6,-,0.01,,Unknown,80,2013-10-05 13:51:00
10:51 AM,63.0,61.0,93,30.03,-9999.0,East,5.8,-,N/A,,Unknown,80,2013-10-05 14:51:00
11:51 AM,63.0,62.1,97,30.03,-9999.0,NE,8.1,-,N/A,,Unknown,50,2013-10-05 15:51:00
12:51 PM,63.0,62.1,97,30.03,-9999.0,ESE,12.7,-,N/A,,Unknown,120,2013-10-05 16:51:00
1:51 PM,63.0,62.1,97,29.98,-9999.0,ESE,16.1,-,N/A,,Unknown,120,2013-10-05 17:51:00
2:51 PM,64.0,62.1,93,29.98,-9999.0,SE,10.4,-,N/A,,Unknown,130,2013-10-05 18:51:00
3:51 PM,64.9,63.0,93,29.97,-9999.0,ESE,9.2,-,N/A,,Unknown,120,2013-10-05 19:51:00
4:51 PM,64.0,63.0,96,29.94,-9999.0,SE,8.1,-,N/A,,Unknown,130,2013-10-05 20:51:00
5:51 PM,64.0,63.0,96,29.94,-9999.0,ESE,11.5,-,N/A,,Unknown,120,2013-10-05 21:51:00
6:51 PM,64.0,63.0,96,29.95,-9999.0,SE,9.2,-,N/A,,Unknown,130,2013-10-05 22:51:00
7:51 PM,64.0,62.1,93,29.94,-9999.0,SE,13.8,-,N/A,,Unknown,130,2013-10-05 23:51:00
8:51 PM,64.9,62.1,90,29.94,-9999.0,SE,12.7,-,N/A,,Unknown,130,2013-10-06 00:51:00
9:51 PM,64.0,62.1,93,29.93,-9999.0,SE,13.8,-,0.05,,Unknown,140,2013-10-06 01:51:00
10:51 PM,64.0,62.1,93,29.91,-9999.0,SE,11.5,20.7,N/A,,Unknown,140,2013-10-06 02:51:00
11:51 PM,64.0,61.0,90,29.88,-9999.0,SE,15.0,20.7,N/A,,Unknown,140,2013-10-06 03:51:00